DW8348 Weather Reports


Display with metric or nautical units.
time (UTC)temp
F
wind
direction
speed
MPH
gust
MPH
rain 1hr
in
rain 24hr
in
rain mn
in
humidity
%
barometer
mb
20181212101504 24 67 2.0 8.0 0.00 0.00 0.00 73 1020.0
20181212100012 25 65 2.0 6.0 0.00 0.00 0.00 72 1020.1
20181212094520 25 65 2.0 6.0 0.00 0.00 0.00 72 1020.4
20181212093028 25 65 2.0 6.0 0.00 0.00 0.00 73 1020.7
20181212091508 25 65 3.0 5.0 0.00 0.00 0.00 72 1020.7
20181212090016 25 64 3.0 6.0 0.00 0.00 0.00 73 1021.0
20181212084504 26 64 2.0 8.0 0.00 0.00 0.00 72 1021.0
20181212083015 26 63 3.0 8.0 0.00 0.00 0.00 72 1020.9
20181212081508 26 62 2.0 7.0 0.00 0.00 0.00 73 1021.1
20181212080012 26 58 2.0 6.0 0.00 0.00 0.00 71 1021.3
20181212074505 26 59 2.0 5.0 0.00 0.00 0.00 71 1021.4
20181212073021 26 59 3.0 7.0 0.00 0.00 0.00 71 1021.6
20181212071519 26 59 2.0 6.0 0.00 0.00 0.00 73 1021.7
20181212070032 27 59 2.0 6.0 0.00 0.00 0.00 72 1022.0
20181212064508 27 58 2.0 6.0 0.00 0.00 0.00 72 1022.1
20181212063006 27 57 1.0 7.0 0.00 0.00 0.00 74 1022.3
20181212061504 27 57 1.0 3.0 0.00 0.00 0.00 74 1022.3
20181212060005 27 58 2.0 6.0 0.00 0.00 0.00 73 1022.4
20181212054518 27 57 1.0 3.0 0.00 0.00 0.00 73 1022.5
20181212053011 28 57 1.0 4.0 0.00 0.00 0.00 74 1022.6
20181212051529 28 57 0.0 4.0 0.00 0.00 0.00 75 1022.6
20181212050013 28 57 1.0 4.0 0.00 0.00 0.00 75 1022.4
20181212044507 29 57 1.0 4.0 0.00 0.00 0.00 73 1022.4
20181212043015 30 57 2.0 4.0 0.00 0.00 0.00 73 1022.5
20181212041508 29 57 2.0 5.0 0.00 0.00 0.00 73 1022.5
20181212040031 29 57 2.0 6.0 0.00 0.00 0.00 75 1022.6
20181212034508 29 57 1.0 6.0 0.00 0.00 0.00 78 1022.7
20181212033018 29 57 2.0 3.0 0.00 0.00 0.00 76 1022.7
20181212031512 29 57 1.0 5.0 0.00 0.00 0.00 77 1022.9
20181212030005 30 57 1.0 3.0 0.00 0.00 0.00 76 1023.1
20181212024513 31 57 0.0 3.0 0.00 0.00 0.00 74 1023.1
20181212023022 30 57 1.0 5.0 0.00 0.00 0.00 75 1023.2
20181212021515 30 57 1.0 5.0 0.00 0.00 0.00 77 1023.2
20181212020008 30 57 0.0 4.0 0.00 0.00 0.00 77 1023.0
20181212014531 31 57 0.0 5.0 0.00 0.00 0.00 76 1023.2
20181212013024 31 0 0.0 0.0 0.00 0.00 0.00 74 1023.4
20181212011517 32 57 1.0 2.0 0.00 0.00 0.00 74 1023.4
20181212010011 32 57 0.0 2.0 0.00 0.00 0.00 73 1023.4
20181212004505 33 57 0.0 1.0 0.00 0.00 0.00 71 1023.5
20181212003028 34 57 0.0 2.0 0.00 0.00 0.00 71 1023.5
20181212001506 34 57 1.0 4.0 0.00 0.00 0.00 70 1023.4
20181212000014 34 57 3.0 5.0 0.00 0.00 0.00 70 1023.3
20181211234507 34 57 5.0 7.0 0.00 0.00 0.00 69 1023.3
20181211233004 36 57 4.0 8.0 0.00 0.00 0.00 66 1023.3
20181211231504 36 57 4.0 8.0 0.00 0.00 0.00 66 1023.3
20181211230004 37 59 4.0 8.0 0.00 0.00 0.00 65 1023.3
20181211224504 38 59 4.0 7.0 0.00 0.00 0.00 65 1023.3
20181211223004 38 59 4.0 10.0 0.00 0.00 0.00 65 1023.3
20181211221504 38 59 4.0 7.0 0.00 0.00 0.00 64 1023.3
20181211220004 39 60 4.0 8.0 0.00 0.00 0.00 64 1023.5
20181211214503 39 61 5.0 10.0 0.00 0.00 0.00 64 1023.5
20181211213005 39 63 5.0 8.0 0.00 0.00 0.00 64 1023.6
20181211211503 39 61 5.0 10.0 0.00 0.00 0.00 65 1023.7
20181211210004 38 65 7.0 12.0 0.00 0.00 0.00 66 1023.8
20181211204505 39 78 7.0 11.0 0.00 0.00 0.00 65 1023.8
20181211203004 39 95 6.0 13.0 0.00 0.00 0.00 64 1023.9
20181211201504 39 106 5.0 8.0 0.00 0.00 0.00 65 1024.1
20181211200005 38 107 6.0 9.0 0.00 0.00 0.00 65 1024.5
20181211194504 38 108 5.0 11.0 0.00 0.00 0.00 65 1025.0
20181211193004 38 114 6.0 12.0 0.00 0.00 0.00 65 1025.3
20181211191503 38 127 6.0 11.0 0.00 0.00 0.00 65 1025.2
20181211190005 38 140 4.0 8.0 0.00 0.00 0.00 65 1025.5
20181211183004 38 143 2.0 6.0 0.00 0.00 0.00 61 1026.1
20181211181505 38 143 1.0 4.0 0.00 0.00 0.00 63 1026.6
20181211180005 36 143 1.0 5.0 0.00 0.00 0.00 68 1026.9
20181211174504 35 144 3.0 6.0 0.00 0.00 0.00 69 1027.4
20181211173005 34 144 2.0 7.0 0.00 0.00 0.00 70 1027.4
20181211171506 34 144 1.0 6.0 0.00 0.00 0.00 71 1027.7
20181211170005 32 0 0.0 0.0 0.00 0.00 0.00 75 1027.6
20181211164524 30 144 0.0 1.0 0.00 0.00 0.00 81 1027.6
20181211163018 28 144 0.0 2.0 0.00 0.00 0.00 83 1027.7
20181211161511 27 144 0.0 4.0 0.00 0.00 0.00 85 1027.4
20181211160019 25 144 1.0 6.0 0.00 0.00 0.00 87 1027.3
20181211154512 25 144 1.0 4.0 0.00 0.00 0.00 86 1027.2
20181211153005 25 144 0.0 4.0 0.00 0.00 0.00 87 1027.2
20181211151513 25 0 0.0 0.0 0.00 0.00 0.00 87 1027.1
20181211150022 25 144 1.0 2.0 0.00 0.00 0.00 88 1026.9
20181211144530 24 144 1.0 8.0 0.00 0.00 0.00 87 1026.9
20181211143023 25 144 0.0 4.0 0.00 0.00 0.00 87 1026.9
20181211141516 25 144 1.0 4.0 0.00 0.00 0.00 87 1026.8
20181211140023 25 144 0.0 5.0 0.00 0.00 0.00 87 1026.8
20181211134517 26 144 1.0 4.0 0.00 0.00 0.00 87 1026.9
20181211133010 26 144 1.0 5.0 0.00 0.00 0.00 86 1026.8
20181211131517 26 144 1.0 4.0 0.00 0.00 0.00 86 1027.0
20181211130010 26 144 0.0 4.0 0.00 0.00 0.00 86 1026.8
20181211124518 27 144 0.0 2.0 0.00 0.00 0.00 86 1026.9
20181211123011 27 144 1.0 4.0 0.00 0.00 0.00 86 1026.9
20181211121518 27 144 1.0 6.0 0.00 0.00 0.00 85 1026.7
20181211120011 27 144 1.0 4.0 0.00 0.00 0.00 86 1026.5
20181211114504 27 144 1.0 4.0 0.00 0.00 0.00 86 1026.2
20181211113017 27 144 2.0 9.0 0.00 0.00 0.00 86 1026.7
20181211111505 27 144 1.0 4.0 0.00 0.00 0.00 85 1026.5
20181211110009 27 144 1.0 4.0 0.00 0.00 0.00 86 1026.7
20181211104531 26 144 1.0 5.0 0.00 0.00 0.00 86 1026.7
20181211103029 26 144 1.0 5.0 0.00 0.00 0.00 86 1026.8